Regional Weather Roundup
Issued by NWS Kansas City/Pleasant Hill, MO

Home | Current Version | Previous Version | Text Only | Print | Product List | Glossary On
Versions: 1 2 3 4 5 6 7 8 9 10 11 12 13 14 15 16 17 18 19 20 21 22 23 24 25 26 27
000
ASUS43 KEAX 210610
RWREAX

WEATHER ROUNDUP FOR EASTERN KANSAS AND NORTHWEST MISSOURI
NATIONAL WEATHER SERVICE KANSAS CITY/PLEASANT HILL MO
100 AM CDT SAT OCT 21 2017

KSZ040-057-103>105-MOZ028-029-037-043-210700-
...KANSAS CITY METROPOLITAN AREA...

CITY           SKY/WX    TMP DP  RH WIND       PRES   REMARKS
K.C. INTL      PTCLDY    66  58  75 S20G29    29.85S
6HR MIN TEMP:  66; 6HR MAX TEMP:  69;

K.C. DOWNTOWN  CLOUDY    68  58  70 S16G26    29.87S
6HR MIN TEMP:  68; 6HR MAX TEMP:  72;

LEES SUMMIT    PTCLDY    64  58  80 S20G29    29.88F
6HR MIN TEMP:  64; 6HR MAX TEMP:  69;

OLATHE - IXD   CLEAR     63  57  81 S14       29.87S
6HR MIN TEMP:  63; 6HR MAX TEMP:  68;

OLATHE - OJC   CLEAR     62  57  83 S15G24    29.87F
6HR MIN TEMP:  62; 6HR MAX TEMP:  67;

LAWRENCE       PTCLDY    66  59  78 SE17G25   29.83F

$$

MOZ001>008-011>017-020>025-030>033-038>040-044>046-053-054-210700-
...NORTHERN AND CENTRAL MISSOURI...

CITY           SKY/WX    TMP DP  RH WIND       PRES   REMARKS
ST. JOSEPH     LGT RAIN  68  59  73 S17       29.81F
6HR MIN TEMP:  67; 6HR MAX TEMP:  70; 6HR PCP: TRACE;

MOSBY          CLOUDY    64  55  72 S9        29.88R
WARRENSBURG    MOCLDY    63  55  77 SE9G16    29.91S
WHITEMAN AFB   MOCLDY    64  58  81 S13       29.88S
6HR MIN TEMP:  64; 6HR MAX TEMP:  67;

CLINTON        CLOUDY    64  57  77 S10       29.94S
SEDALIA        MOCLDY    66  60  81 S16       29.95F
6HR MIN TEMP:  65; 6HR MAX TEMP:  67;

WARSAW         NOT AVBL
CHILLICOTHE      N/A     65  58  78 S9G17     29.91S
6HR MIN TEMP:  63; 6HR MAX TEMP:  68;

KIRKSVILLE     MOCLDY    64  58  80 S13       29.95S
6HR MIN TEMP:  60; 6HR MAX TEMP:  65;


$$

MOZ041-047>049-056>058-063>065-088>090-097-210700-
...EASTERN AND SOUTHERN MISSOURI...

CITY           SKY/WX    TMP DP  RH WIND       PRES   REMARKS
ST. LOUIS INTL CLOUDY    65  52  62 SE7       30.04S
6HR MIN TEMP:  65; 6HR MAX TEMP:  72; 6HR PCP: TRACE;

SPIRIT OF STL  CLOUDY    64  54  69 CALM      30.02S
COLUMBIA       MOCLDY    62  55  77 S10       29.98S
JEFFERSON CITY MOCLDY    64  54  69 SE7       29.98S
ROLLA          PTCLDY    63  52  67 S13       30.01F
OSAGE BEACH    CLOUDY    64  56  75 S8        29.99S
SPRINGFIELD    PTCLDY    63  59  87 S18G25    29.97R
BRANSON        CLOUDY    63  57  82 SE9       30.02R
JOPLIN         PTCLDY    63  58  83 S12       29.94R
WEST PLAINS    MOCLDY    63  53  70 SE12      30.06S

$$

IAZ060-094-KSZ022-034>040-054-083-096-NEZ052-066-093-210700-
...KANSAS...SOUTHEAST NEBRASKA AND IOWA...

CITY           SKY/WX    TMP DP  RH WIND       PRES   REMARKS
TOPEKA         CLOUDY    68  60  75 S21G31    29.79F
6HR MIN TEMP:  68; 6HR MAX TEMP:  71;

MANHATTAN      CLEAR     69  60  73 S21G29    29.71F
EMPORIA        CLOUDY    65  58  78 S22G33    29.80F
CHANUTE        CLEAR     64  59  83 S15       29.88S
WICHITA        CLOUDY    69  63  81 S22G35    29.76F
OMAHA          PTCLDY    67  56  67 S23       29.69F
LINCOLN        CLOUDY    69  59  70 S24G33    29.64F
FALLS CITY     CLOUDY    67  57  70 S21G30    29.74F
LAMONI         LGT RAIN  63  55  75 S15G23    29.85F
DES MOINES     PTCLDY    62  53  72 SE14      29.82F

$$





USA.gov is the U.S. government's official web portal to all federal, state and local government web resources and services.